| time (UTC) | temp C | wind direction | speed KPH | gust KPH | rain 1hr cm | rain 24hr cm | rain mn cm | humidity % | barometer mb |
| 20260510113038 | 20 | 92 | 0.0 | 16.1 | 0.00 | 1.40 | 0.00 | 73 | 1014.5 |
| 20260510111533 | 20 | 11 | 1.6 | 19.3 | 0.00 | 1.40 | 0.00 | 72 | 1014.5 |
| 20260510110040 | 20 | 148 | 9.7 | 29.0 | 0.00 | 1.40 | 0.00 | 72 | 1014.5 |
| 20260510104531 | 21 | 157 | 1.6 | 19.3 | 0.00 | 1.40 | 0.00 | 69 | 1014.6 |
| 20260510103030 | 21 | 60 | 0.0 | 11.3 | 0.00 | 1.40 | 0.00 | 64 | 1014.6 |
| 20260510101533 | 21 | 9 | 0.0 | 11.3 | 0.00 | 1.40 | 0.00 | 65 | 1014.8 |
| 20260510100025 | 20 | 150 | 0.0 | 12.9 | 0.00 | 1.40 | 0.00 | 68 | 1014.7 |
| 20260510094525 | 20 | 122 | 1.6 | 4.8 | 0.00 | 1.40 | 0.00 | 69 | 1014.8 |
| 20260510093019 | 19 | 138 | 0.0 | 12.9 | 0.00 | 1.40 | 0.00 | 71 | 1014.8 |
| 20260510091617 | 19 | 69 | 0.0 | 19.3 | 0.00 | 1.40 | 0.00 | 72 | 1014.8 |
| 20260510090018 | 18 | 61 | 0.0 | 4.8 | 0.00 | 1.40 | 0.00 | 74 | 1014.8 |
| 20260510084516 | 18 | 53 | 0.0 | 4.8 | 0.00 | 1.40 | 0.00 | 75 | 1014.8 |
| 20260510083009 | 18 | 15 | 0.0 | 16.1 | 0.00 | 1.40 | 0.00 | 76 | 1014.7 |
| 20260510081510 | 17 | 40 | 0.0 | 3.2 | 0.00 | 1.40 | 0.00 | 78 | 1014.6 |
| 20260510080004 | 17 | 55 | 0.0 | 16.1 | 0.00 | 1.40 | 0.00 | 80 | 1014.7 |
| 20260510074504 | 17 | 67 | 0.0 | 4.8 | 0.00 | 1.40 | 0.00 | 81 | 1014.6 |
| 20260510073110 | 16 | 22 | 0.0 | 3.2 | 0.00 | 1.40 | 0.00 | 82 | 1014.6 |
| 20260510071556 | 16 | 81 | 0.0 | 16.1 | 0.00 | 1.40 | 0.00 | 82 | 1014.5 |
| 20260510070054 | 16 | 338 | 1.6 | 19.3 | 0.00 | 1.40 | 0.00 | 82 | 1014.6 |
| 20260510064553 | 15 | 157 | 0.0 | 4.8 | 0.00 | 1.42 | 0.00 | 83 | 1014.6 |
| 20260510063051 | 15 | 258 | 1.6 | 12.9 | 0.00 | 1.42 | 0.00 | 83 | 1014.5 |
| 20260510061546 | 14 | 105 | 0.0 | 14.5 | 0.00 | 1.42 | 0.00 | 84 | 1014.4 |
| 20260510060042 | 14 | 266 | 1.6 | 16.1 | 0.00 | 1.42 | 0.00 | 85 | 1014.4 |
| 20260510054540 | 13 | 237 | 0.0 | 11.3 | 0.00 | 1.42 | 0.00 | 86 | 1014.4 |
| 20260510053037 | 13 | 306 | 1.6 | 14.5 | 0.00 | 1.42 | 0.00 | 86 | 1014.3 |
| 20260510051537 | 13 | 254 | 0.0 | 11.3 | 0.00 | 1.42 | 0.00 | 86 | 1014.4 |
| 20260510050042 | 12 | 22 | 0.0 | 0.0 | 0.00 | 1.42 | 0.00 | 86 | 1014.4 |
| 20260510044538 | 12 | 53 | 0.0 | 6.4 | 0.00 | 1.42 | 0.00 | 86 | 1014.4 |
| 20260510043035 | 12 | 315 | 0.0 | 6.4 | 0.00 | 1.42 | 0.00 | 86 | 1014.5 |
| 20260510041634 | 12 | 329 | 0.0 | 11.3 | 0.00 | 1.42 | 0.00 | 86 | 1014.4 |
| 20260510040035 | 12 | 273 | 0.0 | 12.9 | 0.00 | 1.42 | 0.00 | 87 | 1014.3 |
| 20260510034532 | 12 | 273 | 1.6 | 11.3 | 0.00 | 1.42 | 0.00 | 88 | 1014.5 |
| 20260510033031 | 12 | 323 | 0.0 | 12.9 | 0.00 | 1.42 | 0.00 | 89 | 1014.5 |
| 20260510031530 | 12 | 323 | 0.0 | 0.0 | 0.00 | 1.42 | 0.00 | 89 | 1014.6 |
| 20260510030030 | 12 | 300 | 0.0 | 0.0 | 0.00 | 1.42 | 0.00 | 88 | 1014.6 |
| 20260510024529 | 12 | 294 | 0.0 | 0.0 | 0.00 | 1.42 | 0.00 | 88 | 1014.7 |
| 20260510023031 | 12 | 294 | 0.0 | 0.0 | 0.00 | 1.42 | 0.00 | 88 | 1014.9 |
| 20260510021530 | 12 | 296 | 0.0 | 0.0 | 0.00 | 1.42 | 0.00 | 87 | 1014.9 |
| 20260510020026 | 12 | 292 | 4.8 | 8.0 | 0.00 | 1.42 | 0.00 | 87 | 1014.9 |
| 20260510014525 | 12 | 294 | 4.8 | 8.0 | 0.00 | 1.65 | 0.00 | 86 | 1014.7 |
| 20260510013024 | 12 | 288 | 4.8 | 9.7 | 0.00 | 1.65 | 0.00 | 86 | 1014.5 |
| 20260510011523 | 13 | 296 | 4.8 | 12.9 | 0.00 | 1.65 | 0.00 | 86 | 1014.6 |
| 20260510010021 | 13 | 292 | 4.8 | 12.9 | 0.00 | 1.65 | 0.00 | 86 | 1014.7 |
| 20260510004522 | 12 | 275 | 4.8 | 12.9 | 0.00 | 1.65 | 0.00 | 87 | 1014.8 |
| 20260510003019 | 12 | 281 | 6.4 | 12.9 | 0.00 | 1.65 | 0.00 | 88 | 1015.0 |
| 20260510001516 | 12 | 285 | 4.8 | 12.9 | 0.00 | 1.65 | 0.00 | 89 | 1015.0 |
| 20260510000013 | 12 | 323 | 4.8 | 16.1 | 0.00 | 1.65 | 0.00 | 89 | 1015.4 |
| 20260509234528 | 12 | 240 | 6.4 | 17.7 | 0.00 | 1.65 | 0.00 | 89 | 1015.5 |
| 20260509233011 | 12 | 317 | 4.8 | 11.3 | 0.00 | 1.65 | 0.00 | 89 | 1015.6 |
| 20260509231515 | 12 | 285 | 0.0 | 14.5 | 0.00 | 1.65 | 0.00 | 88 | 1015.7 |
| 20260509230007 | 13 | 293 | 6.4 | 16.1 | 0.00 | 1.65 | 0.00 | 87 | 1015.8 |
| 20260509224514 | 13 | 273 | 0.0 | 0.0 | 0.00 | 1.65 | 0.00 | 86 | 1015.5 |
| 20260509223004 | 13 | 273 | 0.0 | 0.0 | 0.00 | 1.65 | 0.00 | 88 | 1015.7 |
| 20260509221502 | 13 | 273 | 0.0 | 0.0 | 0.00 | 1.65 | 0.00 | 88 | 1015.6 |
| 20260509220059 | 13 | 269 | 0.0 | 0.0 | 0.00 | 1.65 | 0.00 | 88 | 1015.7 |
| 20260509214559 | 12 | 308 | 0.0 | 0.0 | 0.00 | 1.65 | 1.65 | 88 | 1015.8 |
| 20260509213059 | 12 | 308 | 0.0 | 0.0 | 0.00 | 1.65 | 1.65 | 89 | 1015.6 |
| 20260509211558 | 12 | 308 | 0.0 | 0.0 | 0.00 | 1.65 | 1.65 | 89 | 1015.5 |
| 20260509204606 | 13 | 308 | 0.0 | 0.0 | 0.00 | 1.65 | 1.65 | 89 | 1015.3 |
| 20260509203110 | 12 | 309 | 0.0 | 0.0 | 0.00 | 1.65 | 1.65 | 89 | 1015.1 |
| 20260509201556 | 12 | 304 | 0.0 | 0.0 | 0.00 | 1.65 | 1.65 | 89 | 1014.9 |
| 20260509200056 | 12 | 318 | 0.0 | 0.0 | 0.00 | 1.65 | 1.65 | 90 | 1014.7 |
| 20260509194555 | 12 | 302 | 0.0 | 0.0 | 0.00 | 1.65 | 1.65 | 90 | 1014.4 |
| 20260509193055 | 12 | 292 | 0.0 | 0.0 | 0.00 | 1.65 | 1.65 | 90 | 1014.2 |
| 20260509191554 | 12 | 285 | 0.0 | 0.0 | 0.00 | 1.65 | 1.65 | 90 | 1014.1 |
| 20260509190056 | 12 | 285 | 0.0 | 4.8 | 0.00 | 1.65 | 1.65 | 90 | 1013.8 |
| 20260509184554 | 12 | 327 | 0.0 | 0.0 | 0.03 | 1.65 | 1.65 | 90 | 1013.4 |
| 20260509183054 | 12 | 288 | 0.0 | 0.0 | 0.03 | 1.65 | 1.65 | 90 | 1013.3 |
| 20260509181608 | 12 | 250 | 0.0 | 0.0 | 0.03 | 1.65 | 1.65 | 90 | 1013.2 |
| 20260509180112 | 12 | 13 | 0.0 | 3.2 | 0.05 | 1.65 | 1.65 | 90 | 1012.9 |
| 20260509174553 | 12 | 54 | 0.0 | 3.2 | 0.05 | 1.63 | 1.63 | 90 | 1012.7 |
| 20260509173107 | 12 | 32 | 0.0 | 12.9 | 0.13 | 1.63 | 1.63 | 90 | 1012.8 |
| 20260509171553 | 12 | 190 | 1.6 | 12.9 | 0.25 | 1.63 | 1.63 | 90 | 1012.7 |
| 20260509170053 | 12 | 17 | 1.6 | 19.3 | 0.38 | 1.60 | 1.60 | 90 | 1012.6 |
| 20260509164547 | 12 | 269 | 6.4 | 17.7 | 0.46 | 1.57 | 1.57 | 90 | 1013.3 |
| 20260509163044 | 12 | 17 | 1.6 | 6.4 | 0.51 | 1.50 | 1.50 | 90 | 1014.2 |
| 20260509161555 | 13 | 24 | 0.0 | 1.6 | 0.48 | 1.37 | 1.37 | 90 | 1014.6 |
| 20260509160040 | 13 | 109 | 0.0 | 3.2 | 0.38 | 1.22 | 1.22 | 90 | 1015.2 |
| 20260509154539 | 13 | 101 | 0.0 | 3.2 | 0.30 | 1.09 | 1.09 | 90 | 1015.5 |
| 20260509153040 | 13 | 157 | 0.0 | 1.6 | 0.25 | 0.99 | 0.99 | 90 | 1015.3 |
| 20260509151540 | 13 | 150 | 0.0 | 0.0 | 0.36 | 0.89 | 0.89 | 90 | 1015.0 |
| 20260509150037 | 13 | 81 | 1.6 | 16.1 | 0.36 | 0.84 | 0.84 | 90 | 1012.5 |
| 20260509144535 | 13 | 38 | 8.0 | 19.3 | 0.41 | 0.79 | 0.79 | 90 | 1012.1 |
| 20260509143035 | 14 | 5 | 4.8 | 24.1 | 0.46 | 0.71 | 0.71 | 89 | 1012.7 |
| 20260509141538 | 14 | 101 | 4.8 | 22.5 | 0.25 | 0.51 | 0.51 | 88 | 1014.0 |
| 20260509140026 | 15 | 91 | 1.6 | 16.1 | 0.23 | 0.48 | 0.48 | 88 | 1014.8 |
| 20260509134531 | 15 | 76 | 0.0 | 4.8 | 0.13 | 0.38 | 0.38 | 86 | 1015.3 |
| 20260509133025 | 15 | 104 | 0.0 | 1.6 | 0.03 | 0.28 | 0.28 | 83 | 1015.4 |
| 20260509131528 | 15 | 328 | 0.0 | 6.4 | 0.00 | 0.25 | 0.25 | 81 | 1015.1 |
| 20260509130025 | 15 | 18 | 1.6 | 20.9 | 0.00 | 0.25 | 0.25 | 82 | 1014.2 |
| 20260509124522 | 15 | 83 | 0.0 | 20.9 | 0.00 | 0.25 | 0.25 | 84 | 1013.7 |
| 20260509123021 | 15 | 324 | 3.2 | 20.9 | 0.00 | 0.25 | 0.25 | 85 | 1014.0 |
| 20260509121520 | 15 | 355 | 3.2 | 22.5 | 0.03 | 0.25 | 0.25 | 87 | 1014.4 |
| 20260509120021 | 15 | 37 | 0.0 | 12.9 | 0.03 | 0.25 | 0.25 | 88 | 1015.1 |
| 20260509114514 | 15 | 39 | 0.0 | 3.2 | 0.03 | 0.25 | 0.25 | 87 | 1015.8 |